星链-11292 (STARLINK-11292)

导读

STARLINK-11292是美国SpaceX星链互联网卫星项目的一员,于2024年9月20日发射升空。星链计划旨在构建覆盖全球的低轨卫星互联网星座,为全球偏远地区、海洋等传统网络覆盖盲区提供高速网络服务,该卫星入轨后将融入现有星链网络,进一步补充星座容量,提升全球卫星互联网服务覆盖密度与稳定性。

基本信息
目录编号:
61203
目录名称:
STARLINK-11292
国际标识:
2024-171D
轨道中心:
EARTH
卫星名称:
星链-11292
卫星全名:
星链-11292 (STARLINK-11292)
卫星状态:
在轨 (已飞行722 天)
发射日期:
2024-09-20 UTC
国别 :
美国 (US)
星等 :
--
该卫星已列入 空间交会检测服务 Space Conjunction Data Service (SCDS) ,当前飞行风险评估等级: 无高风险
轨道信息
数据来源 国际轨道数据
星历时间: 2026-09-12T13:02:39+0800
12小时前
查看轨道信息
半长轴: 6737.841km
偏心率: 0.0001136
轨道倾角: 53.159°
近地点辐角 68.923°
升交点赤经 336.803°
平近点角 291.191°
近地点: 358.938km
远地点: 360.47km
周期: 91.736分钟
每日圈数: 15.697182
详细信息
固有亮度:
5
最大亮度:
2.5
卫星平台:
Starlink V1.0
覆盖范围:
全球
运营商:
太空探索技术公司
运营商所在国:
美国
制造商(研发单位):
太空探索技术公司
制造商所在国:
美国
使用方式:
暂无
卫星简介
Starlink 计划是 SpaceX 推出的全球卫星互联网项目,通过发射低轨道卫星,为全球尤其是偏远地区提供高速、低延迟的互联网服务。自 2019 年起,Starlink 已部署数千颗卫星,旨在缩小全球数字鸿沟,推动互联网普及。该项目还为军事、航空等行业提供通信支持,带来广泛经济效益。
2D轨道图
3D轨道图
轨道高度分析图
轨道倾角分析图
轨道综合分析图
查看轨道综合分析图
交会数据列表
事件ID 空间交会对象 最接近时刻(TCA) 交会距离 交会风险概率(CRP) 交会风险指数(CRI) 操作
CDM_260912-090806-120306-222221
2026-09-12T
09:08:27+0000
2.008 km
极远距离
1.850032E-6 低风险 0.4
与全量物体交会距离演化趋势
与全量物体交会风险概率演化趋势